Location: Boiro
(42.6475°N, 8.8834°W)
Time: 00:55:10
(UTC+01:00)

Tiros 1 despin weight - Pass Details

Date: 08 December 2021
Orbit: 592 x 641 km, 48.2° (Epoch: 23 January)

Event Time Altitude Azimuth Distance (km) Brightness Sun altitude
Rises 17:24:54 0° 294° (WNW) 2,830 ? 4.8°
Reaches altitude 10° 17:27:13 10° 298° (WNW) 1,924 ? 4.5°
Maximum altitude 17:31:35 63° 19° (NNE) 664 ? 3.8°
Drops below altitude 10° 17:35:57 10° 102° (ESE) 1,921 ? 3.2°
Sets 17:38:15 0° 105° (ESE) 2,824 ? 2.8°
